LNX65AT DFFD-DRRN

Flight info

Callsign LNX65AT
Flight time 0h 39m
Altitude 21000
Route DEKAS1N DEKAS UQ594 VOSIP DCT BANGA ETROT1R
Aircraft GLF6/M-SBDE2E3FGHIJ4J5M1RWXY/LB1D1

Departure

Time 2026-04-21 22:27
Airport Ouagadougou Thomas Sankara International Airport (DFFD)

Arrival

Time 2026-04-21 23:07
Airport Diori Hamani International Airport (DRRN)
Time Latitude Longitude Altitude Speed Heading
2026-04-21 22:15 12.35140 -1.51580 1029 ft 0 kts 115°
2026-04-21 22:25 12.35135 -1.51569 1029 ft 6 kts 122°
2026-04-21 22:25 12.35039 -1.51540 1030 ft 18 kts 139°
2026-04-21 22:25 12.34920 -1.51499 1032 ft 24 kts 212°
2026-04-21 22:25 12.34747 -1.51617 1038 ft 34 kts 213°
2026-04-21 22:26 12.34517 -1.51771 1043 ft 44 kts 213°
2026-04-21 22:26 12.34282 -1.51924 1044 ft 27 kts 213°
2026-04-21 22:26 12.34217 -1.52013 1043 ft 11 kts 202°
2026-04-21 22:26 12.34225 -1.51961 1044 ft 18 kts 31°
2026-04-21 22:27 12.34650 -1.51680 1040 ft 127 kts 33°
2026-04-21 22:27 12.35518 -1.51085 1691 ft 164 kts 33°
2026-04-21 22:27 12.36578 -1.50381 2506 ft 209 kts 32°
2026-04-21 22:27 12.37751 -1.49598 3131 ft 189 kts 33°
2026-04-21 22:28 12.38872 -1.48850 3857 ft 209 kts 33°
2026-04-21 22:28 12.40172 -1.47981 4609 ft 240 kts 33°
2026-04-21 22:28 12.41651 -1.46989 5360 ft 267 kts 34°
2026-04-21 22:28 12.43224 -1.45936 6075 ft 273 kts 34°
2026-04-21 22:29 12.44817 -1.44867 6778 ft 272 kts 34°
2026-04-21 22:29 12.46396 -1.43808 7473 ft 275 kts 35°
2026-04-21 22:29 12.48020 -1.42719 8187 ft 278 kts 35°
2026-04-21 22:29 12.49639 -1.41631 8888 ft 282 kts 36°
2026-04-21 22:30 12.51287 -1.40526 9593 ft 285 kts 36°
2026-04-21 22:30 12.52945 -1.39411 10303 ft 295 kts 36°
2026-04-21 22:30 12.54740 -1.38203 11040 ft 323 kts 36°
2026-04-21 22:30 12.56664 -1.36834 11763 ft 345 kts 44°
2026-04-21 22:31 12.58046 -1.34814 12476 ft 360 kts 68°
2026-04-21 22:31 12.58961 -1.32367 13234 ft 378 kts 71°
2026-04-21 22:31 12.59903 -1.29821 13956 ft 395 kts 71°
2026-04-21 22:31 12.60898 -1.27161 14679 ft 402 kts 71°
2026-04-21 22:32 12.61904 -1.24480 15384 ft 406 kts 71°
2026-04-21 22:32 12.62912 -1.21794 16089 ft 411 kts 71°
2026-04-21 22:32 12.63950 -1.19035 16802 ft 416 kts 71°
2026-04-21 22:32 12.64993 -1.16258 17531 ft 427 kts 71°
2026-04-21 22:33 12.66054 -1.13429 18620 ft 431 kts 71°
2026-04-21 22:33 12.67141 -1.10533 19508 ft 441 kts 70°
2026-04-21 22:33 12.68232 -1.07625 20478 ft 448 kts 70°
2026-04-21 22:33 12.69372 -1.04587 21043 ft 461 kts 70°
2026-04-21 22:34 12.70524 -1.01518 21063 ft 466 kts 70°
2026-04-21 22:34 12.71683 -0.98430 21064 ft 462 kts 70°
2026-04-21 22:34 12.72823 -0.95388 21061 ft 459 kts 70°
2026-04-21 22:34 12.73966 -0.92336 21064 ft 460 kts 70°
2026-04-21 22:35 12.75108 -0.89288 21066 ft 461 kts 70°
2026-04-21 22:35 12.76245 -0.86248 21066 ft 459 kts 70°
2026-04-21 22:35 12.77398 -0.83167 21064 ft 460 kts 70°
2026-04-21 22:35 12.78537 -0.80122 21067 ft 462 kts 70°
2026-04-21 22:36 12.80834 -0.73975 21067 ft 461 kts 70°
2026-04-21 22:36 12.81976 -0.70918 21064 ft 462 kts 70°
2026-04-21 22:36 12.83120 -0.67852 21065 ft 462 kts 70°
2026-04-21 22:37 12.84258 -0.64807 21066 ft 462 kts 70°
2026-04-21 22:37 12.85415 -0.61705 21061 ft 462 kts 70°
2026-04-21 22:37 12.86232 -0.58574 21036 ft 459 kts 85°
2026-04-21 22:37 12.86161 -0.55332 21066 ft 457 kts 96°
2026-04-21 22:38 12.85891 -0.52082 21063 ft 458 kts 96°
2026-04-21 22:38 12.85611 -0.48827 21057 ft 458 kts 96°
2026-04-21 22:38 12.85328 -0.45564 21052 ft 458 kts 96°
2026-04-21 22:38 12.85048 -0.42352 21049 ft 458 kts 96°
2026-04-21 22:39 12.84763 -0.39072 21041 ft 459 kts 96°
2026-04-21 22:39 12.84480 -0.35844 21043 ft 459 kts 96°
2026-04-21 22:39 12.84195 -0.32584 21039 ft 459 kts 96°
2026-04-21 22:39 12.83911 -0.29333 21036 ft 460 kts 96°
2026-04-21 22:40 12.83623 -0.26047 21035 ft 460 kts 96°
2026-04-21 22:40 12.83337 -0.22795 21035 ft 461 kts 96°
2026-04-21 22:40 12.83052 -0.19547 21036 ft 460 kts 96°
2026-04-21 22:40 12.82767 -0.16311 21030 ft 460 kts 96°
2026-04-21 22:41 12.82478 -0.13032 21034 ft 461 kts 96°
2026-04-21 22:41 12.82192 -0.09795 21033 ft 460 kts 96°
2026-04-21 22:41 12.81903 -0.06529 21031 ft 460 kts 96°
2026-04-21 22:41 12.81612 -0.03235 21025 ft 461 kts 96°
2026-04-21 22:42 12.81738 0.00002 21010 ft 464 kts 80°
2026-04-21 22:42 12.82631 0.03207 21031 ft 465 kts 73°
2026-04-21 22:42 12.83599 0.06357 21028 ft 465 kts 73°
2026-04-21 22:42 12.84562 0.09492 21027 ft 465 kts 73°
2026-04-21 22:43 12.85527 0.12637 21020 ft 464 kts 73°
2026-04-21 22:43 12.86505 0.15824 21022 ft 465 kts 73°
2026-04-21 22:43 12.87474 0.18985 21030 ft 464 kts 73°
2026-04-21 22:43 12.88440 0.22138 21023 ft 465 kts 73°
2026-04-21 22:44 12.89410 0.25306 21022 ft 465 kts 73°
2026-04-21 22:44 12.90377 0.28465 21026 ft 466 kts 73°
2026-04-21 22:44 12.91339 0.31607 21027 ft 465 kts 73°
2026-04-21 22:44 12.92306 0.34772 21027 ft 465 kts 73°
2026-04-21 22:45 12.93266 0.37911 21020 ft 466 kts 73°
2026-04-21 22:45 12.94239 0.41095 21020 ft 466 kts 73°
2026-04-21 22:45 12.95205 0.44259 21021 ft 466 kts 73°
2026-04-21 22:45 12.96166 0.47409 21018 ft 465 kts 73°
2026-04-21 22:46 12.97129 0.50563 21021 ft 466 kts 73°
2026-04-21 22:46 12.98093 0.53724 21020 ft 466 kts 73°
2026-04-21 22:46 12.99054 0.56878 21023 ft 465 kts 73°
2026-04-21 22:46 13.00016 0.60035 21027 ft 465 kts 73°
2026-04-21 22:47 13.00987 0.63221 21024 ft 467 kts 73°
2026-04-21 22:47 13.01954 0.66397 21022 ft 468 kts 73°
2026-04-21 22:47 13.02920 0.69573 21020 ft 467 kts 73°
2026-04-21 22:47 13.03894 0.72775 21019 ft 468 kts 74°
2026-04-21 22:48 13.04856 0.75943 21021 ft 467 kts 74°
2026-04-21 22:48 13.05656 0.78573 21020 ft 466 kts 73°
2026-04-21 22:48 13.06016 0.79758 21016 ft 464 kts 74°
2026-04-21 22:48 13.06969 0.82897 21005 ft 460 kts 74°
2026-04-21 22:49 13.07919 0.86029 21009 ft 459 kts 74°
2026-04-21 22:49 13.08852 0.89124 21009 ft 459 kts 74°
2026-04-21 22:49 13.09805 0.92278 21012 ft 458 kts 73°
2026-04-21 22:49 13.10739 0.95359 20964 ft 460 kts 74°
2026-04-21 22:50 13.11697 0.98520 20605 ft 459 kts 74°
2026-04-21 22:50 13.12629 1.01593 20142 ft 454 kts 74°
2026-04-21 22:50 13.13553 1.04644 19658 ft 447 kts 74°
2026-04-21 22:50 13.14477 1.07698 19163 ft 441 kts 74°
2026-04-21 22:51 13.15380 1.10683 18682 ft 437 kts 75°
2026-04-21 22:51 13.16264 1.13607 18214 ft 433 kts 75°
2026-04-21 22:51 13.17148 1.16536 17738 ft 428 kts 75°
2026-04-21 22:51 13.18022 1.19426 17272 ft 423 kts 76°
2026-04-21 22:52 13.18887 1.22296 16822 ft 418 kts 76°
2026-04-21 22:52 13.19739 1.25120 16362 ft 414 kts 75°
2026-04-21 22:52 13.20590 1.27945 15900 ft 410 kts 75°
2026-04-21 22:52 13.21417 1.30686 15461 ft 404 kts 75°
2026-04-21 22:53 13.22239 1.33416 15009 ft 400 kts 75°
2026-04-21 22:53 13.23059 1.36136 14563 ft 395 kts 75°
2026-04-21 22:53 13.23860 1.38795 14134 ft 391 kts 75°
2026-04-21 22:53 13.24654 1.41438 13704 ft 387 kts 74°
2026-04-21 22:54 13.25450 1.44084 13272 ft 383 kts 74°
2026-04-21 22:54 13.26228 1.46667 12842 ft 379 kts 74°
2026-04-21 22:54 13.27002 1.49245 12417 ft 378 kts 74°
2026-04-21 22:54 13.27773 1.51808 12003 ft 375 kts 74°
2026-04-21 22:55 13.28533 1.54340 11593 ft 374 kts 73°
2026-04-21 22:55 13.29302 1.56899 11181 ft 371 kts 73°
2026-04-21 22:55 13.30051 1.59392 10776 ft 363 kts 73°
2026-04-21 22:55 13.30781 1.61826 10375 ft 348 kts 73°
2026-04-21 22:56 13.31477 1.64146 9997 ft 336 kts 73°
2026-04-21 22:56 13.32148 1.66383 9640 ft 324 kts 73°
2026-04-21 22:56 13.32800 1.68559 9292 ft 314 kts 74°
2026-04-21 22:56 13.33428 1.70659 8949 ft 305 kts 74°
2026-04-21 22:57 13.34043 1.72717 8618 ft 297 kts 74°
2026-04-21 22:57 13.34646 1.74732 8291 ft 289 kts 74°
2026-04-21 22:57 13.35284 1.76649 8033 ft 280 kts 68°
2026-04-21 22:57 13.36181 1.78424 7583 ft 280 kts 64°
2026-04-21 22:58 13.37091 1.80173 7218 ft 277 kts 64°
2026-04-21 22:58 13.37981 1.81894 6935 ft 269 kts 64°
2026-04-21 22:58 13.38828 1.83533 6663 ft 255 kts 64°
2026-04-21 22:58 13.39638 1.85102 6343 ft 244 kts 64°
2026-04-21 22:59 13.40415 1.86609 6065 ft 234 kts 65°
2026-04-21 22:59 13.41159 1.88052 5805 ft 224 kts 65°
2026-04-21 22:59 13.41877 1.89445 5565 ft 216 kts 65°
2026-04-21 22:59 13.42566 1.90782 5327 ft 208 kts 65°
2026-04-21 23:00 13.43238 1.92087 5096 ft 202 kts 65°
2026-04-21 23:00 13.43878 1.93330 4880 ft 196 kts 65°
2026-04-21 23:00 13.44507 1.94550 4673 ft 190 kts 66°
2026-04-21 23:00 13.45123 1.95745 4467 ft 185 kts 66°
2026-04-21 23:01 13.45720 1.96896 4268 ft 182 kts 66°
2026-04-21 23:01 13.46312 1.98052 4075 ft 184 kts 66°
2026-04-21 23:01 13.46908 1.99213 3877 ft 184 kts 66°
2026-04-21 23:01 13.47387 2.00403 3667 ft 177 kts 84°
2026-04-21 23:02 13.47453 2.01666 3480 ft 179 kts 89°
2026-04-21 23:02 13.47508 2.02937 3265 ft 179 kts 89°
2026-04-21 23:02 13.47566 2.04210 3048 ft 177 kts 89°
2026-04-21 23:02 13.47621 2.05399 2848 ft 155 kts 88°
2026-04-21 23:03 13.47668 2.06399 2642 ft 128 kts 89°
2026-04-21 23:03 13.47709 2.07283 2476 ft 120 kts 90°
2026-04-21 23:03 13.47749 2.08134 2334 ft 122 kts 89°
2026-04-21 23:03 13.47790 2.09018 2178 ft 123 kts 89°
2026-04-21 23:04 13.47831 2.09893 2031 ft 121 kts 90°
2026-04-21 23:04 13.47871 2.10770 1868 ft 125 kts 88°
2026-04-21 23:04 13.47914 2.11640 1719 ft 123 kts 90°
2026-04-21 23:04 13.47955 2.12534 1565 ft 122 kts 90°
2026-04-21 23:05 13.47996 2.13415 1405 ft 125 kts 89°
2026-04-21 23:05 13.48037 2.14304 1249 ft 123 kts 89°
2026-04-21 23:05 13.48077 2.15176 1095 ft 124 kts 90°
2026-04-21 23:05 13.48120 2.16065 938 ft 122 kts 90°
2026-04-21 23:06 13.48157 2.16910 780 ft 124 kts 89°
2026-04-21 23:06 13.48189 2.17721 738 ft 93 kts 90°
2026-04-21 23:06 13.48220 2.18223 735 ft 68 kts 87°
2026-04-21 23:06 13.48239 2.18657 730 ft 55 kts 85°
2026-04-21 23:07 13.48256 2.19017 726 ft 45 kts 88°
2026-04-21 23:07 13.48275 2.19316 722 ft 38 kts 87°
2026-04-21 23:07 13.48284 2.19574 719 ft 33 kts 86°
2026-04-21 23:07 13.48172 2.19707 718 ft 26 kts 178°
2026-04-21 23:08 13.48093 2.19589 719 ft 22 kts 264°
2026-04-21 23:08 13.48086 2.19429 722 ft 22 kts 268°
2026-04-21 23:08 13.48078 2.19254 725 ft 29 kts 266°
2026-04-21 23:08 13.48065 2.18981 728 ft 48 kts 268°
2026-04-21 23:09 13.48048 2.18653 734 ft 29 kts 265°
2026-04-21 23:09 13.48002 2.18528 735 ft 14 kts 198°
2026-04-21 23:09 13.47911 2.18448 737 ft 24 kts 269°
2026-04-21 23:09 13.47903 2.18264 738 ft 26 kts 267°
2026-04-21 23:10 13.47896 2.18150 740 ft 13 kts 237°
2026-04-21 23:10 13.47825 2.18152 741 ft 0 kts 175°
2026-04-21 23:10 13.47818 2.18152 741 ft 0 kts 176°